Katatota Island, Ontario

7:55 PM EDT on May 27, 2017 (GMT -0400)
Katatota Island

Weather History for CWKK - October, 2012

Change the Weather History Date:

Saturday, October 6, 2012

  Actual Average Record
Temperature  
Mean Temperature 40 °F -  
Max Temperature 44 °F - - ()
Min Temperature 36 °F - - ()
Degree Days  
Heating Degree Days 25    
Moisture  
Dew Point 35 °F    
Average Humidity 79    
Maximum Humidity 96    
Minimum Humidity 64    
Precipitation  
Precipitation 0.03 in - - ()
Sea Level Pressure  
Sea Level Pressure 30.00 in    
Wind  
Wind Speed 22 mph ()    
Max Wind Speed 32 mph    
Max Gust Speed 41 mph    
T = Trace of Precipitation, MM = Missing Value Source: Averaged Metar Reports

Daily Weather History Graph

Daily Weather History Graph

Search for Another Location

Airport or City:

Trip Planner

Search our weather history database for the weather conditions in past years. The results will help you decide how hot, cold, wet, or windy it might be!

Date:

Astronomy

Oct. 06, 2012 Rise Set
Actual Time 8:01 AM EDT 7:19 PM EDT
Civil Twilight 7:29 AM EDT 7:52 PM EDT
Nautical Twilight 6:52 AM EDT 8:29 PM EDT
Astronomical Twilight 6:14 AM EDT 9:06 PM EDT
Moon 11:09 PM EDT (10/6) 2:22 PM EDT (10/6)
Length of Visible Light 12h 22m
Length of Day
11h 18m
Waning Gibbous, 65% of the Moon is Illuminated
Oct 6
Waning Gibbous
Oct 8
Last Quarter
Oct 15
New
Oct 21
First Quarter
Oct 29
Full

Hourly Weather History & Observations

Time (EDT) Temp. Windchill Dew Point Humidity Pressure Visibility Wind Dir Wind Speed Gust Speed Precip Events Conditions
12:00 AM 37.8 °F 25.7 °F 36.3 °F 95% 29.89 in - North 28.8 mph 39.1 mph 0.02 in   Unknown
1:00 AM 38.5 °F 26.0 °F 36.0 °F 91% 29.91 in - NNE 32.2 mph 41.4 mph N/A   Unknown
2:00 AM 37 °F - 36 °F 96% 29.92 in - North 24.2 mph - -  
2:00 AM 37.4 °F 26.1 °F 36.3 °F 96% 29.92 in - North 24.2 mph 33.4 mph 0.03 in   Unknown
3:00 AM 37.9 °F 25.9 °F 36.0 °F 93% 29.93 in - North 28.8 mph 36.8 mph N/A   Unknown
4:00 AM 38.1 °F 26.6 °F 36.1 °F 93% 29.93 in - North 26.5 mph 34.5 mph N/A   Unknown
5:00 AM 37.8 °F 25.7 °F 34.9 °F 89% 29.95 in - North 28.8 mph 36.8 mph N/A   Unknown
6:00 AM 38.1 °F 26.6 °F 35.6 °F 91% 29.98 in - North 26.5 mph 35.7 mph N/A   Unknown
7:00 AM 37.8 °F 26.3 °F 34.0 °F 86% 29.99 in - North 25.3 mph 36.8 mph N/A   Unknown
8:00 AM 38 °F - 36 °F 87% 30.01 in - North 23.0 mph - -  
9:00 AM 38.3 °F 26.8 °F 33.1 °F 81% 30.01 in - North 26.5 mph 33.4 mph N/A   Unknown
11:00 AM 39.9 °F 29.2 °F 34.7 °F 82% 30.03 in - NNW 25.3 mph 31.1 mph N/A   Unknown
12:00 PM 39.7 °F 29.5 °F 33.6 °F 79% 30.05 in - NNW 23.0 mph 29.9 mph N/A   Unknown
1:00 PM 40.5 °F 30.2 °F 31.5 °F 70% 30.06 in - NNW 24.2 mph 29.9 mph N/A   Unknown
2:00 PM 41 °F - 33 °F 64% 30.06 in - North 19.6 mph - -  
2:00 PM 41.0 °F 31.9 °F 32.9 °F 73% 30.06 in - North 19.6 mph 26.5 mph N/A   Unknown
3:00 PM 42.6 °F 34.3 °F 31.8 °F 66% 30.05 in - NNW 18.4 mph - N/A   Unknown
4:00 PM 42.4 °F 33.3 °F 32.9 °F 69% 30.05 in - NW 21.9 mph - N/A   Unknown
5:00 PM 43.0 °F 34.2 °F 36.5 °F 78% 30.05 in - NW 20.7 mph - N/A   Unknown
6:00 PM 43.9 °F 35.7 °F 35.1 °F 71% 30.04 in - NW 19.6 mph - N/A   Unknown
7:00 PM 44.2 °F 35.7 °F 35.1 °F 70% 30.04 in - NW 21.9 mph - N/A   Unknown
8:00 PM 44 °F - 36 °F 64% 30.04 in - NW 20.7 mph - -  
8:00 PM 44.2 °F 35.9 °F 35.8 °F 72% 30.04 in - NW 20.7 mph 27.6 mph N/A   Unknown
9:00 PM 43.7 °F 35.0 °F 34.0 °F 69% 30.04 in - WNW 21.9 mph - N/A   Unknown
10:00 PM 43.7 °F 33.9 °F 33.8 °F 68% 30.03 in - WNW 27.6 mph - N/A   Unknown
11:00 PM 43.7 °F 34.7 °F 35.1 °F 72% 30.02 in - WNW 23.0 mph 28.8 mph N/A   Unknown